Time,TemperatureF,DewpointF,PressureIn,WindDirection,WindDirectionDegrees,WindSpeedMPH,WindSpeedGustMPH,Humidity,HourlyPrecipIn,Conditions,Clouds,dailyrainin,SoftwareType,DateUTC
2013-04-19 00:03:00,71.0,59.0,29.97,East,86,0.0,4.0,66,0.00,,,0.00,,2013-04-19 04:03:00,
2013-04-19 00:13:00,71.0,59.0,29.97,East,86,0.0,4.0,66,0.00,,,0.00,,2013-04-19 04:13:00,
2013-04-19 00:23:00,71.0,59.0,29.97,SW,223,0.0,4.0,67,0.00,,,0.00,,2013-04-19 04:23:00,
2013-04-19 00:33:00,71.0,59.0,29.97,SW,223,0.0,4.0,67,0.00,,,0.00,,2013-04-19 04:33:00,
2013-04-19 00:43:00,71.0,59.0,29.97,SW,223,0.0,4.0,67,0.00,,,0.00,,2013-04-19 04:43:00,
2013-04-19 00:52:00,71.0,59.0,29.97,SW,223,0.0,4.0,67,0.00,,,0.00,,2013-04-19 04:52:00,
2013-04-19 01:22:00,70.0,60.0,29.95,ENE,67,0.0,5.0,70,0.00,,,0.00,,2013-04-19 05:22:00,
2013-04-19 01:32:00,70.0,60.0,29.95,ENE,67,0.0,5.0,70,0.00,,,0.00,,2013-04-19 05:32:00,
2013-04-19 01:42:00,70.0,60.0,29.95,ENE,67,0.0,5.0,70,0.00,,,0.00,,2013-04-19 05:42:00,
2013-04-19 01:52:00,70.0,60.0,29.95,East,85,0.0,3.0,71,0.00,,,0.00,,2013-04-19 05:52:00,
2013-04-19 02:02:00,70.0,60.0,29.95,East,85,0.0,3.0,71,0.00,,,0.00,,2013-04-19 06:02:00,
2013-04-19 02:12:00,70.0,60.0,29.95,East,85,0.0,3.0,71,0.00,,,0.00,,2013-04-19 06:12:00,
2013-04-19 02:22:00,69.0,60.0,29.93,East,99,0.0,4.0,73,0.00,,,0.00,,2013-04-19 06:22:00,
2013-04-19 02:32:00,69.0,60.0,29.93,East,99,0.0,4.0,73,0.00,,,0.00,,2013-04-19 06:32:00,
2013-04-19 02:42:00,69.0,60.0,29.93,East,99,0.0,4.0,73,0.00,,,0.00,,2013-04-19 06:42:00,
2013-04-19 02:53:00,68.0,60.0,29.92,East,98,1.0,3.0,75,0.00,,,0.00,,2013-04-19 06:53:00,
2013-04-19 03:02:00,68.0,60.0,29.92,East,98,1.0,3.0,75,0.00,,,0.00,,2013-04-19 07:02:00,
2013-04-19 03:12:00,68.0,60.0,29.91,NE,49,1.0,4.0,76,0.00,,,0.00,,2013-04-19 07:12:00,
2013-04-19 03:21:00,68.0,60.0,29.91,NE,49,1.0,4.0,76,0.00,,,0.00,,2013-04-19 07:21:00,
2013-04-19 03:32:00,68.0,60.0,29.91,NE,49,1.0,4.0,76,0.00,,,0.00,,2013-04-19 07:32:00,
2013-04-19 03:42:00,68.0,60.0,29.91,NE,49,1.0,4.0,76,0.00,,,0.00,,2013-04-19 07:42:00,
2013-04-19 03:52:00,67.0,60.0,29.90,SSE,149,1.0,5.0,78,0.00,,,0.00,,2013-04-19 07:52:00,
2013-04-19 04:02:00,67.0,60.0,29.90,SSE,149,1.0,5.0,78,0.00,,,0.00,,2013-04-19 08:02:00,
2013-04-19 04:12:00,67.0,60.0,29.88,ENE,59,0.0,3.0,79,0.00,,,0.00,,2013-04-19 08:12:00,
2013-04-19 04:22:00,67.0,60.0,29.88,ENE,59,0.0,3.0,79,0.00,,,0.00,,2013-04-19 08:22:00,
2013-04-19 04:33:00,67.0,60.0,29.88,ENE,59,0.0,3.0,79,0.00,,,0.00,,2013-04-19 08:33:00,
2013-04-19 04:42:00,67.0,61.0,29.88,SSW,210,1.0,6.0,80,0.00,,,0.00,,2013-04-19 08:42:00,
2013-04-19 04:52:00,67.0,61.0,29.88,SSW,210,1.0,6.0,80,0.00,,,0.00,,2013-04-19 08:52:00,
2013-04-19 05:01:00,67.0,61.0,29.88,SSW,210,1.0,6.0,80,0.00,,,0.00,,2013-04-19 09:01:00,
2013-04-19 05:12:00,67.0,61.0,29.88,SSW,210,1.0,6.0,80,0.00,,,0.00,,2013-04-19 09:12:00,
2013-04-19 05:21:00,67.0,61.0,29.87,SE,127,0.0,2.0,81,0.00,,,0.00,,2013-04-19 09:21:00,
2013-04-19 05:32:00,67.0,61.0,29.87,SE,127,0.0,2.0,81,0.00,,,0.00,,2013-04-19 09:32:00,
2013-04-19 05:43:00,67.0,61.0,29.87,SE,127,0.0,2.0,81,0.00,,,0.00,,2013-04-19 09:43:00,
2013-04-19 05:52:00,67.0,62.0,29.88,SSW,195,0.0,2.0,83,0.00,,,0.00,,2013-04-19 09:52:00,
2013-04-19 06:02:00,67.0,62.0,29.88,SSW,195,0.0,2.0,83,0.00,,,0.00,,2013-04-19 10:02:00,
2013-04-19 06:13:00,67.0,62.0,29.87,West,277,0.0,4.0,85,0.00,,,0.00,,2013-04-19 10:13:00,
2013-04-19 06:23:00,67.0,62.0,29.87,West,277,0.0,4.0,85,0.00,,,0.00,,2013-04-19 10:23:00,
2013-04-19 06:33:00,67.0,62.0,29.87,West,277,0.0,4.0,85,0.00,,,0.00,,2013-04-19 10:33:00,
2013-04-19 06:42:00,67.0,63.0,29.88,SSW,209,1.0,6.0,86,0.00,,,0.00,,2013-04-19 10:42:00,
2013-04-19 06:52:00,67.0,63.0,29.88,SSW,209,1.0,6.0,86,0.00,,,0.00,,2013-04-19 10:52:00,
2013-04-19 07:03:00,67.0,63.0,29.88,SSW,209,1.0,6.0,86,0.00,,,0.00,,2013-04-19 11:03:00,
2013-04-19 07:11:00,67.0,63.0,29.88,SSW,209,1.0,6.0,86,0.00,,,0.00,,2013-04-19 11:11:00,
2013-04-19 07:22:00,67.0,63.0,29.89,WSW,250,1.0,7.0,87,0.00,,,0.00,,2013-04-19 11:22:00,
2013-04-19 07:32:00,67.0,63.0,29.89,WSW,250,1.0,7.0,87,0.00,,,0.00,,2013-04-19 11:32:00,
2013-04-19 07:43:00,67.0,63.0,29.89,WSW,250,1.0,7.0,87,0.00,,,0.00,,2013-04-19 11:43:00,
2013-04-19 07:52:00,68.0,64.0,29.89,ESE,109,1.0,3.0,86,0.00,,,0.00,,2013-04-19 11:52:00,
2013-04-19 08:03:00,68.0,64.0,29.89,ESE,109,1.0,3.0,86,0.00,,,0.00,,2013-04-19 12:03:00,
2013-04-19 08:12:00,68.0,65.0,29.89,West,265,1.0,8.0,89,0.01,,,0.01,,2013-04-19 12:12:00,
2013-04-19 08:22:00,68.0,65.0,29.89,West,265,1.0,8.0,89,0.01,,,0.01,,2013-04-19 12:22:00,
2013-04-19 08:32:00,68.0,65.0,29.89,West,265,1.0,8.0,89,0.01,,,0.01,,2013-04-19 12:32:00,
2013-04-19 08:42:00,68.0,65.0,29.89,West,265,1.0,8.0,89,0.01,,,0.01,,2013-04-19 12:42:00,
2013-04-19 08:53:00,67.0,64.0,29.88,South,177,1.0,5.0,91,0.01,,,0.01,,2013-04-19 12:53:00,
2013-04-19 09:01:00,67.0,64.0,29.88,South,177,1.0,5.0,91,0.01,,,0.01,,2013-04-19 13:01:00,
2013-04-19 09:11:00,68.0,65.0,29.87,WNW,284,1.0,4.0,91,0.00,,,0.01,,2013-04-19 13:11:00,
2013-04-19 09:22:00,68.0,65.0,29.87,WNW,284,1.0,4.0,91,0.00,,,0.01,,2013-04-19 13:22:00,
2013-04-19 09:32:00,68.0,65.0,29.87,WNW,284,1.0,4.0,91,0.00,,,0.01,,2013-04-19 13:32:00,
2013-04-19 09:42:00,68.0,65.0,29.87,WNW,284,1.0,4.0,91,0.00,,,0.01,,2013-04-19 13:42:00,
2013-04-19 09:52:00,68.0,65.0,29.86,South,183,1.0,3.0,91,0.00,,,0.01,,2013-04-19 13:52:00,
2013-04-19 10:02:00,68.0,65.0,29.86,South,183,1.0,3.0,91,0.00,,,0.01,,2013-04-19 14:02:00,
2013-04-19 10:11:00,68.0,65.0,29.85,WNW,296,0.0,3.0,91,0.00,,,0.01,,2013-04-19 14:11:00,
2013-04-19 10:22:00,68.0,65.0,29.85,WNW,296,0.0,3.0,91,0.00,,,0.01,,2013-04-19 14:22:00,
2013-04-19 10:32:00,68.0,65.0,29.85,WNW,296,0.0,3.0,91,0.00,,,0.01,,2013-04-19 14:32:00,
2013-04-19 10:43:00,68.0,65.0,29.85,WNW,296,0.0,3.0,91,0.00,,,0.01,,2013-04-19 14:43:00,
2013-04-19 10:52:00,61.0,59.0,29.88,WNW,303,3.0,7.0,92,0.38,,,0.39,,2013-04-19 14:52:00,
2013-04-19 11:02:00,61.0,59.0,29.88,WNW,303,3.0,7.0,92,0.38,,,0.39,,2013-04-19 15:02:00,
2013-04-19 11:12:00,61.0,59.0,29.88,WNW,303,3.0,7.0,92,0.38,,,0.39,,2013-04-19 15:12:00,
2013-04-19 11:22:00,57.0,56.0,29.91,West,259,4.0,10.0,95,0.42,,,0.43,,2013-04-19 15:22:00,
2013-04-19 11:33:00,57.0,56.0,29.91,West,259,4.0,10.0,95,0.42,,,0.43,,2013-04-19 15:33:00,
2013-04-19 11:43:00,57.0,56.0,29.91,West,259,4.0,10.0,95,0.42,,,0.43,,2013-04-19 15:43:00,
2013-04-19 11:52:00,54.0,53.0,29.93,WNW,294,4.0,13.0,95,0.10,,,0.50,,2013-04-19 15:52:00,
2013-04-19 12:03:00,54.0,53.0,29.93,WNW,294,4.0,13.0,95,0.10,,,0.50,,2013-04-19 16:03:00,
2013-04-19 12:13:00,54.0,53.0,29.93,WNW,294,4.0,13.0,95,0.10,,,0.50,,2013-04-19 16:13:00,
2013-04-19 12:23:00,53.0,52.0,29.95,WSW,258,3.0,8.0,96,0.14,,,0.57,,2013-04-19 16:23:00,
2013-04-19 12:32:00,53.0,52.0,29.95,WSW,258,3.0,8.0,96,0.14,,,0.57,,2013-04-19 16:32:00,
2013-04-19 12:43:00,53.0,52.0,29.95,WSW,258,3.0,8.0,96,0.14,,,0.57,,2013-04-19 16:43:00,
2013-04-19 12:53:00,52.0,51.0,29.93,NW,304,4.0,12.0,95,0.15,,,0.65,,2013-04-19 16:53:00,
2013-04-19 13:02:00,52.0,51.0,29.93,NW,304,4.0,12.0,95,0.15,,,0.65,,2013-04-19 17:02:00,
2013-04-19 13:12:00,52.0,51.0,29.93,NW,304,4.0,12.0,95,0.15,,,0.65,,2013-04-19 17:12:00,
2013-04-19 13:22:00,51.0,50.0,29.96,WNW,288,3.0,8.0,96,0.17,,,0.74,,2013-04-19 17:22:00,
2013-04-19 13:33:00,51.0,50.0,29.96,WNW,288,3.0,8.0,96,0.17,,,0.74,,2013-04-19 17:33:00,
2013-04-19 13:43:00,51.0,50.0,29.96,WNW,288,3.0,8.0,96,0.17,,,0.74,,2013-04-19 17:43:00,
2013-04-19 13:52:00,50.0,49.0,29.99,WSW,244,5.0,12.0,96,0.12,,,0.77,,2013-04-19 17:52:00,
2013-04-19 14:02:00,50.0,49.0,29.99,WSW,244,5.0,12.0,96,0.12,,,0.77,,2013-04-19 18:02:00,
2013-04-19 14:13:00,50.0,49.0,29.99,WSW,244,5.0,12.0,96,0.12,,,0.77,,2013-04-19 18:13:00,
2013-04-19 14:23:00,50.0,49.0,29.96,NNW,329,1.0,4.0,96,0.02,,,0.77,,2013-04-19 18:23:00,
2013-04-19 14:33:00,50.0,49.0,29.96,NNW,329,1.0,4.0,96,0.02,,,0.77,,2013-04-19 18:33:00,
2013-04-19 14:43:00,50.0,49.0,29.96,NNW,329,1.0,4.0,96,0.02,,,0.77,,2013-04-19 18:43:00,
2013-04-19 14:52:00,49.0,48.0,29.96,WNW,283,1.0,7.0,96,0.00,,,0.77,,2013-04-19 18:52:00,
2013-04-19 15:02:00,49.0,48.0,29.96,WNW,283,1.0,7.0,96,0.00,,,0.77,,2013-04-19 19:02:00,
2013-04-19 15:11:00,49.0,48.0,29.96,WNW,283,1.0,7.0,96,0.00,,,0.77,,2013-04-19 19:11:00,
2013-04-19 15:21:00,50.0,49.0,29.95,WNW,296,3.0,11.0,95,0.00,,,0.77,,2013-04-19 19:21:00,
2013-04-19 15:32:00,50.0,49.0,29.95,WNW,296,3.0,11.0,95,0.00,,,0.77,,2013-04-19 19:32:00,
2013-04-19 15:42:00,50.0,49.0,29.95,WNW,296,3.0,11.0,95,0.00,,,0.77,,2013-04-19 19:42:00,
2013-04-19 15:52:00,49.0,47.0,29.98,NW,305,4.0,11.0,92,0.00,,,0.77,,2013-04-19 19:52:00,
2013-04-19 16:02:00,49.0,47.0,29.98,NW,305,4.0,11.0,92,0.00,,,0.77,,2013-04-19 20:02:00,
2013-04-19 16:11:00,49.0,47.0,29.98,NW,305,4.0,11.0,92,0.00,,,0.77,,2013-04-19 20:11:00,
2013-04-19 16:22:00,48.0,45.0,29.96,WSW,244,3.0,11.0,89,0.00,,,0.77,,2013-04-19 20:22:00,
2013-04-19 16:32:00,48.0,45.0,29.96,WSW,244,3.0,11.0,89,0.00,,,0.77,,2013-04-19 20:32:00,
2013-04-19 16:42:00,47.0,44.0,30.00,West,260,4.0,8.0,90,0.00,,,0.77,,2013-04-19 20:42:00,
2013-04-19 16:52:00,47.0,44.0,30.00,West,260,4.0,8.0,90,0.00,,,0.77,,2013-04-19 20:52:00,
2013-04-19 17:01:00,47.0,44.0,30.00,West,260,4.0,8.0,90,0.00,,,0.77,,2013-04-19 21:01:00,
2013-04-19 17:12:00,47.0,44.0,29.99,WSW,248,2.0,6.0,90,0.00,,,0.77,,2013-04-19 21:12:00,
2013-04-19 17:21:00,47.0,44.0,29.99,WSW,248,2.0,6.0,90,0.00,,,0.77,,2013-04-19 21:21:00,
2013-04-19 17:32:00,47.0,44.0,29.99,WSW,248,2.0,6.0,90,0.00,,,0.77,,2013-04-19 21:32:00,
2013-04-19 17:43:00,47.0,44.0,29.99,WSW,248,2.0,6.0,90,0.00,,,0.77,,2013-04-19 21:43:00,
2013-04-19 17:53:00,47.0,44.0,29.99,WSW,248,2.0,6.0,90,0.00,,,0.77,,2013-04-19 21:53:00,
2013-04-19 18:02:00,47.0,44.0,29.99,WSW,248,2.0,6.0,90,0.00,,,0.77,,2013-04-19 22:02:00,
2013-04-19 18:23:00,48.0,44.0,29.97,West,259,2.0,6.0,86,0.01,,,0.78,,2013-04-19 22:23:00,
2013-04-19 18:33:00,48.0,44.0,29.97,West,259,2.0,6.0,86,0.01,,,0.78,,2013-04-19 22:33:00,
2013-04-19 18:42:00,48.0,44.0,29.97,West,259,2.0,6.0,86,0.01,,,0.78,,2013-04-19 22:42:00,
2013-04-19 18:52:00,48.0,44.0,29.97,West,263,1.0,6.0,86,0.00,,,0.78,,2013-04-19 22:52:00,
2013-04-19 19:03:00,48.0,44.0,29.97,West,263,1.0,6.0,86,0.00,,,0.78,,2013-04-19 23:03:00,
2013-04-19 19:11:00,48.0,44.0,29.97,West,263,1.0,6.0,86,0.00,,,0.78,,2013-04-19 23:11:00,
2013-04-19 19:22:00,49.0,45.0,29.98,NW,307,0.0,5.0,85,0.00,,,0.78,,2013-04-19 23:22:00,
2013-04-19 19:32:00,49.0,45.0,29.98,NW,307,0.0,5.0,85,0.00,,,0.78,,2013-04-19 23:32:00,
2013-04-19 19:42:00,49.0,45.0,29.98,NW,307,0.0,5.0,85,0.00,,,0.78,,2013-04-19 23:42:00,
2013-04-19 19:53:00,48.0,43.0,29.98,West,260,0.0,5.0,84,0.00,,,0.78,,2013-04-19 23:53:00,
2013-04-19 20:02:00,48.0,43.0,29.98,West,260,0.0,5.0,84,0.00,,,0.78,,2013-04-20 00:02:00,
2013-04-19 20:12:00,48.0,43.0,29.98,West,260,0.0,5.0,84,0.00,,,0.78,,2013-04-20 00:12:00,
2013-04-19 20:22:00,48.0,43.0,29.98,WNW,283,2.0,5.0,83,0.00,,,0.78,,2013-04-20 00:22:00,
2013-04-19 20:32:00,48.0,43.0,29.98,WNW,283,2.0,5.0,83,0.00,,,0.78,,2013-04-20 00:32:00,
2013-04-19 20:42:00,48.0,43.0,29.98,WNW,283,2.0,5.0,83,0.00,,,0.78,,2013-04-20 00:42:00,
2013-04-19 20:52:00,47.0,41.0,30.01,WSW,252,2.0,7.0,81,0.00,,,0.78,,2013-04-20 00:52:00,
2013-04-19 21:01:00,47.0,41.0,30.01,WSW,252,2.0,7.0,81,0.00,,,0.78,,2013-04-20 01:01:00,
2013-04-19 21:11:00,47.0,41.0,30.01,WSW,252,2.0,7.0,81,0.00,,,0.78,,2013-04-20 01:11:00,
2013-04-19 21:21:00,47.0,41.0,30.04,WNW,283,0.0,4.0,80,0.00,,,0.78,,2013-04-20 01:21:00,
2013-04-19 21:32:00,47.0,41.0,30.04,WNW,283,0.0,4.0,80,0.00,,,0.78,,2013-04-20 01:32:00,
2013-04-19 21:42:00,47.0,41.0,30.04,WNW,283,0.0,4.0,80,0.00,,,0.78,,2013-04-20 01:42:00,
2013-04-19 21:52:00,47.0,41.0,30.06,West,276,1.0,9.0,79,0.00,,,0.78,,2013-04-20 01:52:00,
2013-04-19 22:02:00,47.0,41.0,30.06,West,276,1.0,9.0,79,0.00,,,0.78,,2013-04-20 02:02:00,
2013-04-19 22:11:00,46.0,40.0,30.07,West,261,2.0,9.0,79,0.00,,,0.78,,2013-04-20 02:11:00,
2013-04-19 22:21:00,46.0,40.0,30.07,West,261,2.0,9.0,79,0.00,,,0.78,,2013-04-20 02:21:00,
2013-04-19 22:32:00,46.0,40.0,30.07,West,261,2.0,9.0,79,0.00,,,0.78,,2013-04-20 02:32:00,
2013-04-19 22:33:00,45.0,39.0,30.09,WNW,294,1.0,3.0,79,0.00,,,0.78,,2013-04-20 02:33:00,
2013-04-19 22:42:00,46.0,40.0,30.07,West,261,2.0,9.0,79,0.00,,,0.78,,2013-04-20 02:42:00,
2013-04-19 22:52:00,45.0,39.0,30.09,WNW,294,1.0,3.0,79,0.00,,,0.78,,2013-04-20 02:52:00,
2013-04-19 23:01:00,45.0,39.0,30.09,WNW,294,1.0,3.0,79,0.00,,,0.78,,2013-04-20 03:01:00,
2013-04-19 23:11:00,45.0,39.0,30.09,WNW,294,1.0,3.0,79,0.00,,,0.78,,2013-04-20 03:11:00,
2013-04-19 23:21:00,45.0,39.0,30.09,WNW,294,1.0,3.0,79,0.00,,,0.78,,2013-04-20 03:21:00,
2013-04-19 23:43:00,44.0,39.0,30.09,WNW,289,0.0,2.0,82,0.00,,,0.78,,2013-04-20 03:43:00,
2013-04-19 23:53:00,44.0,39.0,30.09,WNW,289,0.0,2.0,82,0.00,,,0.78,,2013-04-20 03:53:00,